Namest Nad Oslav, Czech Republic

4:58 AM CEST on October 19, 2019 (GMT +0200)
Namest

Weather History for LKNA - August, 2019

Change the Weather History Date:

Wednesday, August 7, 2019

  Actual Average Record
Temperature  
Mean Temperature 72 °F -  
Max Temperature 84 °F - - ()
Min Temperature 60 °F - - ()
Cooling Degree Days 7    
Growing Degree Days 22 (Base 50)    
Moisture  
Dew Point 59 °F    
Average Humidity 67    
Maximum Humidity 98    
Minimum Humidity 30    
Precipitation  
Precipitation 0.12 in - - ()
Sea Level Pressure  
Sea Level Pressure 29.81 in    
Wind  
Wind Speed 5 mph ()    
Max Wind Speed 16 mph    
Max Gust Speed -    
Visibility 10.0 miles    
Events Rain , Thunderstorm    
T = Trace of Precipitation, MM = Missing Value Source: Averaged Metar Reports

Daily Weather History Graph

Daily Weather History Graph

Search for Another Location

Airport or City:

Astronomy

Aug. 07, 2019 Rise Set
Actual Time 5:35 AM CEST 8:26 PM CEST
Civil Twilight 4:58 AM CEST 9:02 PM CEST
Nautical Twilight 4:11 AM CEST 9:49 PM CEST
Astronomical Twilight 3:14 AM CEST 10:46 PM CEST
Moon 1:26 PM CEST (8/7) 11:54 PM CEST (8/7)
Length of Visible Light 16h 04m
Length of Day
14h 50m
Waxing Crescent, 47% of the Moon is Illuminated
Aug 7
Waxing Crescent
Aug 7
First Quarter
Aug 15
Full
Aug 23
Last Quarter
Aug 30
New

Hourly Weather History & Observations

Time (CEST) Temp. Heat Index Dew Point Humidity Pressure Visibility Wind Dir Wind Speed Gust Speed Precip Events Conditions
12:00 AM 68 °F - 58 °F 64% 29.84 in 12 mi SE 2.2 mph - -   Clear
12:00 AM 68.0 °F - 59.0 °F 73% 29.89 in - ESE 3.5 mph - N/A   Clear
1:00 AM 67 °F - 58 °F 64% 29.84 in 12 mi NE 2.2 mph - -   Clear
1:00 AM 66.2 °F - 59.0 °F 78% 29.89 in - NNE 3.5 mph - N/A   Clear
2:00 AM 67 °F - 58 °F 64% 29.84 in 12 mi East 4.5 mph - -   Overcast
3:00 AM 64.4 °F - 59.0 °F 83% 29.86 in - East 3.5 mph - N/A   Clear
4:00 AM 65 °F - 59 °F 74% 29.83 in 12 mi North 4.5 mph - -   Clear
4:00 AM 62.6 °F - 59.0 °F 88% 29.86 in - North 3.5 mph - N/A   Clear
5:00 AM 63 °F - 59 °F 82% 29.82 in 9 mi South 4.5 mph - -   Clear
5:00 AM 62.6 °F - 59.0 °F 88% 29.83 in - South 4.6 mph - N/A   Clear
6:00 AM 64 °F - 59 °F 78% 29.82 in 19 mi East 2.2 mph - -   Mostly Cloudy
6:00 AM 60.8 °F - 59.0 °F 94% 29.86 in - Variable 2.3 mph - N/A   Clear
7:00 AM 64.4 °F - 59.0 °F 83% 29.83 in - Variable 2.3 mph - N/A   Clear
8:00 AM 68.0 °F - 59.0 °F 73% 29.86 in - SSW 3.5 mph - N/A   Clear
9:00 AM 72 °F - 59 °F 55% 29.79 in 19 mi WNW 4.5 mph - -   Scattered Clouds
9:00 AM 73.4 °F - 59.0 °F 61% 29.83 in - WNW 5.8 mph - N/A   Clear
10:00 AM 75 °F - 58 °F 46% 29.79 in 19 mi SW 8.9 mph - -   Scattered Clouds
10:00 AM 75.2 °F - 59.0 °F 57% 29.86 in 6.2 mi West 8.1 mph - N/A   Mostly Cloudy
11:00 AM 76 °F - 58 °F 44% 29.79 in 25 mi SW 6.7 mph - -   Overcast
11:00 AM 77.0 °F - 59.0 °F 54% 29.86 in 6.2 mi WSW 8.1 mph - N/A   Overcast
12:00 PM 78 °F - 59 °F 43% 29.78 in 25 mi WSW 4.5 mph - -   Scattered Clouds
12:00 PM 77.0 °F - 59.0 °F 54% 29.86 in 6.2 mi West 5.8 mph - N/A   Mostly Cloudy
1:00 PM 80.6 °F 80.8 °F 57.2 °F 45% 29.83 in 6.2 mi West 9.2 mph - N/A   Scattered Clouds
2:00 PM 82.4 °F 81.7 °F 55.4 °F 39% 29.83 in - West 10.4 mph - N/A   Clear
4:00 PM 83 °F - 58 °F 31% 29.70 in 25 mi South 8.9 mph - -   Scattered Clouds
4:00 PM 82.4 °F 82.0 °F 57.2 °F 42% 29.80 in - South 8.1 mph - N/A   Clear
5:00 PM 82 °F - 56 °F 30% 29.69 in 25 mi South 8.9 mph - -   Scattered Clouds
5:00 PM 82.4 °F 82.0 °F 57.2 °F 42% 29.77 in 6.2 mi SSW 9.2 mph - N/A   Mostly Cloudy
6:00 PM 80 °F - 58 °F 37% 29.69 in 25 mi South 11.2 mph - -   Overcast
7:00 PM 70 °F - 62 °F 68% 29.74 in 25 mi NNW 11.2 mph - - Thunderstorm Thunderstorm
7:00 PM 69.8 °F - 62.6 °F 78% 29.77 in 6.2 mi NNW 13.8 mph - N/A Thunderstorm Scattered Clouds
7:28 PM 68.0 °F - 62.6 °F 83% 29.80 in 6.2 mi NW 15.0 mph - N/A   Scattered Clouds
8:00 PM 67 °F - 64 °F 85% 29.77 in 19 mi NW 15.7 mph - - Thunderstorm Light Thunderstorm
8:00 PM 68.0 °F - 62.6 °F 83% 29.80 in 6.2 mi NW 15.0 mph - N/A Rain Light Rain
9:00 PM 64.4 °F - 60.8 °F 88% 29.80 in 6.2 mi NW 15.0 mph - N/A Rain , Thunderstorm Light Rain
10:00 PM 63 °F - 63 °F 98% 29.81 in 6 mi West 6.7 mph - - Rain Light Rain
10:00 PM 62.6 °F - 60.8 °F 94% 29.83 in 6.2 mi WNW 4.6 mph - N/A Rain Light Rain
11:00 PM 62.6 °F - 60.8 °F 94% 29.83 in - West 4.6 mph - N/A   Clear